Location: Kernascl�den
(48.0062°N, 3.3198°W)
Time: 12:21:43
(UTC+00:00)

COSMOS 2455 - Pass Details

Date: 21 January 2021
Orbit: 901 x 908 km, 67.1° (Epoch: 06 March)

Event Time Altitude Azimuth Distance (km) Brightness Sun altitude
Rises 17:43:50 0° 194° (SSW) 3,517 6.4 -8.0°
Reaches altitude 10° 17:46:23 10° 189° (S) 2,581 5.6 -8.4°
Maximum altitude 17:52:08 50° 115° (ESE) 1,146 3.1 -9.3°
Drops below altitude 10° 17:57:55 10° 42° (NE) 2,600 4.7 -10.2°
Enters shadow 17:58:20 - 41° (NE) 2,751 4.8 -10.3°
